STARLINK-33864 (63636 NORAD) Tracking and Keplerian Element Data

This shows tracking and keplerian element data for the satellite.

Feedback or suggestion? Click here.




ElementValue
Catalog63636
NameSTARLINK-33864
Epoch Orbit3790
Epoch Day353.99266673
Epoch Year2025
RAAN95.6943
Inclination43.0006
Eccentricity0.0001466
Argument of Perigee276.5128
Mean Anonmoly83.5557
Mean Motion15.27583061
Decay Rate0.00014005
L11 63636U 25083C 25353.99266673 .00014005 00000+0 51744-3 0 9991
L22 63636 43.0006 95.6943 0001466 276.5128 83.5557 15.27583061 37903



Live tracking and technical data element details for STARLINK-33864 (NORAD 63636). STARLINK-33864 can be tracked NOW for your location showing map with azimuth and elevation plus other details from your city location.







IsCatalogInMostPopularTable: catalog: 63636, numindb: 1
Update: records affected: 1



GetName: 63636 STARLINK-33864

Hit Count: updated at: Sat, 07 Feb 2026 08:21:02 GMT